[[{"header":{"parameterUnit":"m.s-1","parameterCategory":1,"la1":30.2991,"la2":30.254,"lo1":-89.0895,"lo2":-89.0444,"dy":0.0017,"dx":0.0017,"nx":28,"ny":28,"refTime":"2023-09-18T09:00:00:Z","depth":0,"parameterNumber":2,"parameterNumberName":"U-component_of_WINDS"},"data":[0,0,0,0,0,0,0,0,0,0,0,0,0,0,0,0,0,0,0,0,0,0,0,0,0,0,0,0,0,0,0,0,0,0,0,0,0,0,0,0,0,0,0,0,0,0,0,0,0,0,0,0,0,0,0,0,0,0,-3.1906,-3.1906,0,-3.1932,-3.1932,-3.1932,-3.1863,-3.186,-3.1858,-3.1856,-3.1881,-3.1884,-3.1887,0,0,0,0,0,0,0,0,0,0,0,0,0,-3.1795,-3.1797,-3.1906,-3.1906,-3.1907,-3.1932,-3.1932,-3.1932,-3.1863,-3.186,-3.1858,-3.1855,-3.1881,-3.1884,-3.1887,0,0,0,0,0,0,0,0,0,0,0,0,0,-3.1834,-3.1798,-3.1906,-3.1875,-3.1873,-3.1932,-3.1932,-3.1933,-3.1863,-3.186,-3.1857,-3.1854,-3.188,-3.1883,-3.1887,-3.1977,0,0,-3.19,-3.1902,0,0,0,0,0,0,0,0,-3.1832,-3.1838,-3.1879,-3.1877,-3.1875,-3.1891,-3.1902,-3.1948,-3.1864,-3.1867,-3.1856,-3.1852,-3.1887,-3.189,-3.1902,-3.1979,-3.198,-3.19,-3.1903,-3.1904,-3.1905,0,0,0,0,0,0,0,-3.1829,-3.1837,-3.1916,-3.188,-3.1877,-3.1859,-3.1861,-3.191,-3.1895,-3.1866,-3.1861,-3.1865,-3.1885,-3.1899,-3.1902,-3.198,-3.19,-3.1904,-3.1906,-3.1908,-3.2129,-3.2132,0,0,0,0,0,0,-3.1831,-3.1835,-3.1915,-3.1917,-3.1845,-3.1864,-3.1866,-3.1889,-3.1894,-3.1892,-3.1868,-3.1862,-3.1893,-3.1898,-3.1903,-3.2006,-3.1904,-3.1908,-3.191,-3.2125,-3.213,-3.2133,0,0,0,0,0,0,-3.1829,-3.1839,-3.1914,-3.1875,-3.1883,-3.1869,-3.1895,-3.1891,-3.1904,-3.1896,-3.1892,-3.1885,-3.1891,-3.1897,-3.1959,-3.2006,-3.191,-3.1914,-3.2121,-3.2127,-3.2131,-3.2216,0,0,0,0,0,0,-3.1826,-3.1838,-3.1873,-3.1876,-3.1885,-3.1971,-3.1898,-3.1894,-3.1911,-3.1904,-3.191,-3.1908,-3.1889,-3.1953,-3.1963,-3.201,-3.1917,-3.2117,-3.2124,-3.213,-3.2209,-3.2223,-3.2236,0,0,0,0,0,-3.1822,-3.1896,-3.1875,-3.1885,-3.1928,-3.1974,-3.1979,-3.1955,-3.1916,-3.195,-3.1944,-3.1908,-3.2,-3.196,-3.197,-3.202,-3.2114,-3.2122,-3.2129,-3.2203,-3.222,-3.2235,0,0,0,0,0,0,-3.1899,-3.1896,-3.1873,-3.195,-3.1963,-3.1962,-3.2004,-3.1975,-3.1999,-3.1991,-3.1961,-3.1963,-3.2029,-3.2031,-3.1986,-3.2106,-3.205,-3.206,-3.2102,-3.2119,-3.2132,-3.213,-3.192,0,0,0,0,0,-3.1925,-3.1963,-3.1958,-3.2026,-3.2034,-3.2018,-3.2037,-3.2018,-3.203,-3.2034,-3.2033,-3.2046,-3.2077,-3.2098,-3.2127,-3.2209,-3.2208,-3.2248,-3.2261,-3.2273,-3.2281,-3.2323,-3.2339,-3.2159,-3.2159,-3.2159,0,0,-3.1979,-3.1982,-3.2008,-3.2042,-3.2049,-3.2088,-3.2023,-3.2067,-3.2095,-3.2041,-3.2098,-3.2098,-3.211,-3.2182,-3.2213,-3.2185,-3.2331,-3.2283,-3.2291,-3.2294,-3.2332,-3.2349,-3.2365,-3.2164,-3.2163,-3.2162,0,0,-3.2097,-3.2104,-3.216,-3.2169,-3.2181,-3.217,-3.2184,-3.2187,-3.2185,-3.2242,-3.2202,-3.2234,-3.229,-3.2299,-3.2311,-3.2431,-3.2398,-3.2442,-3.2512,-3.2552,-3.2566,-3.2579,-3.262,-3.2635,-3.2451,-3.2451,-3.2451,0,-3.2162,-3.2219,-3.2193,-3.2239,-3.2255,-3.2208,-3.2264,-3.2274,-3.2295,-3.2306,-3.2274,-3.2342,-3.2347,-3.2419,-3.2448,-3.246,-3.2473,-3.244,-3.2567,-3.2579,-3.259,-3.2628,-3.2644,-3.2456,-3.2455,-3.2455,-3.2454,0,-3.2298,-3.2338,-3.2382,-3.2403,-3.2423,-3.2475,-3.2456,-3.248,-3.2458,-3.245,-3.2508,-3.2513,-3.254,-3.2556,-3.2536,-3.2625,-3.2607,-3.2572,-3.2515,-3.2613,-3.2648,-3.2663,-3.2463,-3.2461,-3.246,-3.2459,0,0,-3.2464,-3.2469,-3.2486,-3.2494,-3.2503,-3.2533,-3.2582,-3.2609,-3.2629,-3.2645,-3.2684,-3.2731,-3.2698,-3.2712,-3.2693,-3.2729,-3.2821,-3.2688,-3.2688,-3.2711,-3.2917,-3.2942,-3.296,-3.28,-3.2803,-3.2805,-3.2915,0,-3.2579,-3.2662,-3.2639,-3.2722,-3.2757,-3.2713,-3.2755,-3.2764,-3.2758,-3.2787,-3.278,-3.2813,-3.2768,-3.2775,-3.2809,-3.2803,-3.2861,-3.2795,-3.2834,-3.2836,-3.2831,-3.2978,-3.3006,-3.3109,-3.2929,-3.2931,-3.2933,0,-3.2723,-3.2744,-3.283,-3.2832,-3.2846,-3.2884,-3.2906,-3.2934,-3.2944,-3.2937,-3.2952,-3.2925,-3.2971,-3.2915,-3.2978,-3.2933,-3.2948,-3.2947,-3.295,-3.2952,-3.2889,-3.2982,-3.3142,-3.3157,-3.2955,-3.2953,-3.2952,0,-3.2833,-3.2883,-3.294,-3.2949,-3.2953,-3.298,-3.2983,-3.299,-3.3007,-3.3026,-3.3037,-3.3062,-3.3075,-3.3094,-3.3074,-3.3035,-3.3139,-3.3082,-3.3133,-3.3134,-3.3156,-3.3154,-3.3319,-3.3169,-3.3168,-3.3168,-3.3168,0,-3.2962,-3.3016,-3.299,-3.3025,-3.3083,-3.3057,-3.3115,-3.3113,-3.3119,-3.3152,-3.3115,-3.3147,-3.3119,-3.3149,-3.3133,-3.3186,-3.3193,-3.3188,-3.3183,-3.319,-3.319,-3.3198,-3.319,-3.3172,-3.3171,-3.3171,-3.317,0,-3.3095,-3.308,-3.3139,-3.3137,-3.3138,-3.3181,-3.318,-3.3211,-3.3202,-3.3244,-3.3253,-3.3238,-3.327,-3.3253,-3.3286,-3.3276,-3.3344,-3.333,-3.3341,-3.3336,-3.3388,-3.3382,-3.3561,-3.3583,-3.3421,-3.3422,-3.3424,0,-3.3178,-3.3218,-3.322,-3.324,-3.3245,-3.3277,-3.3294,-3.3269,-3.3288,-3.3301,-3.3331,-3.336,-3.3382,-3.3435,-3.3427,-3.3452,-3.3437,-3.3498,-3.3441,-3.3446,-3.3436,-3.3433,-3.3436,-3.3509,-3.3511,-3.3513,-3.3514,0,-3.3325,-3.3315,-3.3341,-3.3364,-3.3385,-3.3402,-3.3416,-3.3434,-3.3409,-3.3432,-3.3464,-3.3481,-3.3514,-3.3543,-3.3564,-3.3566,-3.3536,-3.3533,-3.3545,-3.3552,-3.3556,-3.3553,-3.337,-3.3528,-3.3527,-3.3526,-3.3525,-3.3524,-3.3434,-3.3466,-3.3473,-3.3502,-3.351,-3.3523,-3.3553,-3.3547,-3.3573,-3.3598,-3.3582,-3.3619,-3.3626,-3.3651,-3.3657,-3.3686,-3.3661,-3.368,-3.3685,-3.369,-3.3696,-3.3553,-3.369,-3.3689,-3.3689,-3.3689,-3.3688,0,-3.3577,-3.3579,-3.3607,-3.3626,-3.3649,-3.3619,-3.3632,-3.3653,-3.3687,-3.3696,-3.3718,-3.3754,-3.3781,-3.3775,-3.38,-3.3823,-3.381,-3.3831,-3.3828,-3.3828,-3.3717,-3.3703,-3.3841,-3.3841,-3.3841,-3.3841,-3.3841,-3.3841,-3.3655,-3.3708,-3.3698,-3.3754,-3.3756,-3.3792,-3.3802,-3.3813,-3.382,-3.3862,-3.3885,-3.388,-3.3883,-3.3907,-3.393,-3.3928,-3.3938,-3.3963,-3.3955,-3.3851,-3.3836,-3.3822,-3.3808,-3.3966,-3.3966,-3.4064,-3.4065,-3.4065]},{"header":{"parameterUnit":"m.s-1","parameterCategory":1,"la1":30.2991,"la2":30.254,"lo1":-89.0895,"lo2":-89.0444,"dy":0.0017,"dx":0.0017,"nx":28,"ny":28,"refTime":"2023-09-18T09:00:00:Z","depth":0,"parameterNumber":3,"parameterNumberName":"V-component_of_WINDS"},"data":[0,0,0,0,0,0,0,0,0,0,0,0,0,0,0,0,0,0,0,0,0,0,0,0,0,0,0,0,0,0,0,0,0,0,0,0,0,0,0,0,0,0,0,0,0,0,0,0,0,0,0,0,0,0,0,0,0,0,1.7475,1.7474,0,1.7403,1.7402,1.7402,1.7345,1.7344,1.7343,1.7343,1.7268,1.7267,1.7266,0,0,0,0,0,0,0,0,0,0,0,0,0,1.7562,1.7561,1.7475,1.7474,1.7473,1.7403,1.7402,1.7401,1.7345,1.7344,1.7343,1.7343,1.7269,1.7267,1.7265,0,0,0,0,0,0,0,0,0,0,0,0,0,1.7511,1.7561,1.7475,1.7437,1.7433,1.7404,1.7402,1.7401,1.7345,1.7344,1.7343,1.7342,1.7269,1.7267,1.7265,1.7269,0,0,1.7258,1.7258,0,0,0,0,0,0,0,0,1.7514,1.7508,1.7443,1.7439,1.7435,1.7382,1.7406,1.7357,1.7345,1.7378,1.7343,1.7342,1.7307,1.7302,1.729,1.7265,1.7262,1.7258,1.7257,1.7256,1.7255,0,0,0,0,0,0,0,1.7517,1.751,1.7447,1.7442,1.7437,1.7423,1.7414,1.7396,1.7348,1.7375,1.7371,1.7363,1.7304,1.7292,1.7288,1.7261,1.7258,1.7256,1.7255,1.7254,1.7234,1.7234,0,0,0,0,0,0,1.7527,1.7514,1.7449,1.7444,1.7473,1.7422,1.7412,1.74,1.7348,1.7339,1.7364,1.7361,1.7296,1.729,1.7285,1.7284,1.7256,1.7254,1.7253,1.7233,1.7234,1.7235,0,0,0,0,0,0,1.7529,1.7522,1.7452,1.7478,1.7468,1.7421,1.7407,1.7399,1.7386,1.734,1.7331,1.736,1.7295,1.7288,1.7273,1.7281,1.7253,1.7251,1.7232,1.7233,1.7234,1.7283,0,0,0,0,0,0,1.7532,1.7523,1.7524,1.7478,1.7467,1.7441,1.7408,1.7398,1.7383,1.7378,1.7334,1.7326,1.7294,1.7276,1.7271,1.7277,1.7249,1.7231,1.7232,1.7234,1.7281,1.7286,1.729,0,0,0,0,0,1.7535,1.7541,1.7524,1.7517,1.7467,1.7442,1.7435,1.7399,1.7384,1.7384,1.7354,1.7327,1.7281,1.7275,1.7268,1.7274,1.723,1.7232,1.7234,1.7278,1.7285,1.729,0,0,0,0,0,0,1.7589,1.7534,1.7515,1.7506,1.7479,1.7432,1.7432,1.7407,1.7384,1.738,1.7336,1.7326,1.7315,1.7294,1.7288,1.7274,1.7252,1.7253,1.7289,1.7294,1.7299,1.7304,1.7247,0,0,0,0,0,1.76,1.7584,1.7537,1.7534,1.7521,1.7479,1.7467,1.7441,1.7411,1.7399,1.7368,1.734,1.7318,1.7305,1.7284,1.7278,1.7266,1.7278,1.7283,1.7288,1.7288,1.7282,1.7286,1.724,1.724,1.724,0,0,1.7621,1.759,1.7583,1.7544,1.7519,1.7504,1.747,1.7455,1.7442,1.7397,1.738,1.7356,1.7322,1.7311,1.7305,1.7292,1.7298,1.729,1.7294,1.7291,1.7284,1.7288,1.7292,1.7241,1.7241,1.7241,0,0,1.7653,1.7628,1.7622,1.7598,1.7562,1.7534,1.7533,1.749,1.7472,1.7455,1.742,1.7405,1.737,1.7346,1.7329,1.7352,1.7326,1.7346,1.7371,1.7365,1.7369,1.7372,1.7378,1.7381,1.7347,1.7347,1.7347,0,1.7684,1.7659,1.7622,1.7608,1.7591,1.755,1.7543,1.7522,1.7481,1.747,1.7457,1.7412,1.7386,1.7368,1.7373,1.7362,1.7358,1.735,1.7372,1.7374,1.7376,1.7382,1.7385,1.735,1.7349,1.7349,1.7349,0,1.7699,1.7682,1.7682,1.7642,1.7626,1.7616,1.7576,1.7564,1.754,1.7513,1.7496,1.7463,1.7433,1.7427,1.7404,1.7406,1.7399,1.738,1.7356,1.7384,1.7388,1.739,1.7353,1.7352,1.7352,1.7351,0,0,1.7761,1.7701,1.7701,1.7682,1.764,1.7626,1.7614,1.7585,1.7574,1.7548,1.7535,1.7507,1.7488,1.7469,1.7443,1.7439,1.7457,1.7419,1.7418,1.7426,1.7455,1.7469,1.7472,1.744,1.744,1.744,1.7457,0,1.7784,1.776,1.7725,1.7712,1.7695,1.7656,1.7645,1.7617,1.7592,1.7574,1.7546,1.7526,1.7504,1.7492,1.7486,1.7456,1.7462,1.7454,1.7427,1.7426,1.7435,1.7474,1.7489,1.7507,1.7459,1.7459,1.746,0,1.7808,1.7783,1.7768,1.7725,1.7717,1.7708,1.7678,1.7662,1.7629,1.7611,1.759,1.7562,1.7546,1.7527,1.7504,1.75,1.7487,1.747,1.747,1.7465,1.7443,1.7468,1.7512,1.7514,1.7462,1.7462,1.7462,0,1.7852,1.7815,1.78,1.7786,1.7737,1.7731,1.771,1.7677,1.7662,1.7636,1.7625,1.7598,1.7583,1.7562,1.7527,1.7516,1.7507,1.7485,1.7491,1.7492,1.7489,1.7489,1.7529,1.7484,1.7484,1.7484,1.7484,0,1.788,1.7872,1.782,1.7811,1.78,1.7761,1.7752,1.7727,1.7698,1.7683,1.7649,1.7635,1.759,1.7572,1.7545,1.7529,1.7523,1.7507,1.7499,1.7509,1.7511,1.7498,1.7496,1.7485,1.7485,1.7485,1.7484,0,1.7927,1.7892,1.7874,1.7829,1.7817,1.7811,1.7772,1.7762,1.7735,1.7717,1.771,1.7668,1.7644,1.7607,1.7573,1.7554,1.7543,1.7532,1.7554,1.7549,1.7556,1.7555,1.7587,1.7589,1.7545,1.7546,1.7546,0,1.7947,1.794,1.7894,1.7881,1.7862,1.7842,1.7826,1.7787,1.7772,1.7734,1.7728,1.7702,1.7679,1.7643,1.7608,1.7582,1.7568,1.7582,1.7564,1.7573,1.7566,1.7566,1.7565,1.7585,1.7586,1.7586,1.7587,0,1.7985,1.7967,1.7945,1.7917,1.7899,1.7875,1.7849,1.7841,1.7796,1.7781,1.7756,1.7738,1.7703,1.7677,1.7645,1.7623,1.7597,1.7593,1.7592,1.7601,1.7613,1.7605,1.7563,1.7592,1.7591,1.7591,1.7591,1.759,1.8017,1.8008,1.7974,1.7951,1.7927,1.7904,1.7891,1.7863,1.7842,1.781,1.7788,1.7765,1.7732,1.7687,1.7667,1.7647,1.7636,1.7636,1.7635,1.7635,1.7638,1.7618,1.7642,1.7641,1.7641,1.7641,1.7641,0,1.8051,1.8027,1.8006,1.7971,1.7953,1.793,1.7901,1.7886,1.7866,1.7838,1.7815,1.7787,1.7761,1.7725,1.7697,1.7688,1.7675,1.7682,1.7681,1.7676,1.7651,1.7653,1.7693,1.7693,1.7693,1.7693,1.7693,1.7693,1.8067,1.805,1.8029,1.8,1.7976,1.7953,1.7937,1.7915,1.7892,1.7862,1.784,1.7817,1.7786,1.7755,1.773,1.772,1.7711,1.772,1.7707,1.7683,1.7678,1.7674,1.7676,1.7719,1.7719,1.7733,1.7734,1.7734]}]]